Simultaneous Nadir Overpasses (SNOs) Predictions

Prediction of SNOs between GOES-16 and NOAA-19 Satellite Orbit:

Table of predicted SNOs for the next 14.0 days since TLE Epoch: 2/28/2025
Index Date Time (GOES-16) GOES-16 Lat,Lon NOAA-19 Lat,Lon Distance(km) Time Diff (sec)
1 03/01/2025 02:25:09 -0.04, -75.18 0.74, -71.70 396.90 80
2 03/02/2025 14:56:30 0.04, -75.22 1.00, -79.23 458.33 80
3 03/03/2025 14:46:36 0.04, -75.23 0.29, -76.18 109.68 80
4 03/04/2025 14:31:23 0.04, -75.23 -0.42, -73.13 239.13 80
5 03/07/2025 02:52:49 -0.04, -75.22 -0.59, -77.61 272.89 80
6 03/08/2025 02:37:35 -0.04, -75.23 0.13, -74.56 76.15 80
7 03/09/2025 02:25:01 -0.03, -75.24 0.80, -71.51 425.42 80
8 03/10/2025 14:56:22 0.04, -75.29 0.90, -79.04 428.64 80
9 03/11/2025 14:43:48 0.04, -75.30 0.22, -75.99 78.58 80
10 03/12/2025 14:33:54 0.04, -75.32 -0.52, -72.94 271.88 80
